Change the Weather History Date:

Saturday, November 12, 2011

  Actual Average Record
Temperature  
Mean Temperature 44 °F -  
Max Temperature 57 °F 41 °F 64 °F (1971)
Min Temperature 30 °F 24 °F 6 °F (1966)
Degree Days  
Heating Degree Days 22    
Moisture  
Dew Point 32 °F    
Average Humidity 67    
Maximum Humidity 81    
Minimum Humidity 47    
Precipitation  
Precipitation 0.00 in - - ()
Sea Level Pressure  
Sea Level Pressure 29.56 in    
Wind  
Wind Speed 9 mph (SSE)    
Max Wind Speed 18 mph    
Max Gust Speed 23 mph    
Visibility 10 miles    
Events      
Averages and records for this station are not official NWS values.
T = Trace of Precipitation, MM = Missing Value Source: NWS Daily Summary

Daily Weather History Graph

Daily Weather History Graph

Search for Another Location

Airport or City:

Trip Planner

Search our weather history database for the weather conditions in past years. The results will help you decide how hot, cold, wet, or windy it might be!

Date:

Astronomy

Nov. 12, 2011 Rise Set
Actual Time 6:58 AM CST 4:49 PM CST
Civil Twilight 6:28 AM CST 5:20 PM CST
Nautical Twilight 5:54 AM CST 5:54 PM CST
Astronomical Twilight 5:20 AM CST 6:27 PM CST
Moon 6:03 PM CST (11/12) 8:44 AM CST (11/12)
Length of Visible Light 10h 51m
Length of Day
9h 50m
Full, 97% of the Moon is Illuminated
Nov 12
Full
Nov 18
Last Quarter
Nov 25
New
Dec 2
First Quarter
Dec 10
Full

Hourly Weather History & Observations

Time (CST) Temp. Windchill Dew Point Humidity Pressure Visibility Wind Dir Wind Speed Gust Speed Precip Events Conditions
12:15 AM 33.8 °F 27.7 °F 26.6 °F 75% 29.66 in 10.0 mi South 6.9 mph - N/A   Clear
12:35 AM 33.8 °F 27.7 °F 26.6 °F 75% 29.66 in 10.0 mi South 6.9 mph - N/A   Clear
12:55 AM 32.0 °F 25.6 °F 26.6 °F 80% 29.66 in 10.0 mi South 6.9 mph - N/A   Clear
1:15 AM 32.0 °F 26.4 °F 26.6 °F 80% 29.65 in 10.0 mi South 5.8 mph - N/A   Clear
1:35 AM 32.0 °F 26.4 °F 26.6 °F 80% 29.65 in 10.0 mi South 5.8 mph - N/A   Clear
1:55 AM 32.0 °F 25.6 °F 26.6 °F 80% 29.66 in 10.0 mi South 6.9 mph - N/A   Clear
2:15 AM 32.0 °F 24.8 °F 26.6 °F 80% 29.65 in 10.0 mi South 8.1 mph - N/A   Clear
2:35 AM 32.0 °F 27.5 °F 26.6 °F 80% 29.65 in 10.0 mi South 4.6 mph - N/A   Clear
2:55 AM 33.8 °F 29.6 °F 26.6 °F 75% 29.64 in 10.0 mi South 4.6 mph - N/A   Clear
3:15 AM 30.2 °F 24.3 °F 24.8 °F 80% 29.64 in 10.0 mi South 5.8 mph - N/A   Clear
3:55 AM 30.2 °F 24.3 °F 24.8 °F 80% 29.65 in 10.0 mi South 5.8 mph - N/A   Clear
4:15 AM 30.2 °F 24.3 °F 24.8 °F 80% 29.64 in 10.0 mi SSE 5.8 mph - N/A   Clear
4:35 AM 32.0 °F 26.4 °F 26.6 °F 80% 29.64 in 10.0 mi SSE 5.8 mph - N/A   Clear
4:55 AM 32.0 °F 27.5 °F 26.6 °F 80% 29.64 in 10.0 mi SE 4.6 mph - N/A   Clear
5:15 AM 32.0 °F 27.5 °F 26.6 °F 80% 29.64 in 10.0 mi SSE 4.6 mph - N/A   Clear
5:35 AM 30.2 °F 23.4 °F 24.8 °F 80% 29.64 in 10.0 mi SSE 6.9 mph - N/A   Clear
5:55 AM 32.0 °F 25.6 °F 26.6 °F 80% 29.63 in 10.0 mi SSE 6.9 mph - N/A   Clear
6:15 AM 32.0 °F 25.6 °F 26.6 °F 80% 29.63 in 10.0 mi SE 6.9 mph - N/A   Clear
6:35 AM 32.0 °F 24.8 °F 26.6 °F 80% 29.63 in 10.0 mi SSE 8.1 mph - N/A   Clear
7:15 AM 33.8 °F 26.4 °F 26.6 °F 75% 29.63 in 10.0 mi SSE 9.2 mph - N/A   Clear
7:35 AM 33.8 °F 27.0 °F 26.6 °F 75% 29.62 in 10.0 mi SSE 8.1 mph - N/A   Clear
7:55 AM 33.8 °F 26.4 °F 28.4 °F 81% 29.62 in 10.0 mi SSE 9.2 mph - N/A   Clear
8:15 AM 35.6 °F 28.6 °F 28.4 °F 75% 29.62 in 10.0 mi SSE 9.2 mph - N/A   Clear
8:35 AM 37.4 °F 31.4 °F 30.2 °F 75% 29.63 in 10.0 mi SSE 8.1 mph - N/A   Clear
9:15 AM 39.2 °F 33.0 °F 32.0 °F 75% 29.62 in 10.0 mi SSE 9.2 mph - N/A   Clear
9:35 AM 42.8 °F 37.0 °F 33.8 °F 70% 29.62 in 10.0 mi South 10.4 mph - N/A   Clear
9:55 AM 42.8 °F 38.0 °F 33.8 °F 70% 29.62 in 10.0 mi SSE 8.1 mph - N/A   Clear
10:15 AM 46.4 °F 41.1 °F 35.6 °F 66% 29.61 in 10.0 mi SSE 11.5 mph - N/A   Clear
10:35 AM 46.4 °F 41.1 °F 35.6 °F 66% 29.61 in 10.0 mi SSE 11.5 mph - N/A   Clear
10:55 AM 44.6 °F 37.2 °F 35.6 °F 71% 29.61 in 10.0 mi South 17.3 mph - N/A   Clear
11:15 AM 46.4 °F 39.8 °F 37.4 °F 71% 29.60 in 10.0 mi SSE 16.1 mph - N/A   Clear
11:35 AM 48.2 °F - 37.4 °F 66% 29.59 in 10.0 mi SSE 11.5 mph - N/A   Clear
11:55 AM 50.0 °F - 37.4 °F 62% 29.58 in 10.0 mi SSE 12.7 mph - N/A   Clear
12:15 PM 50.0 °F - 37.4 °F 62% 29.57 in 10.0 mi South 12.7 mph - N/A   Clear
12:35 PM 51.8 °F - 37.4 °F 58% 29.56 in 10.0 mi South 13.8 mph - N/A   Clear
12:55 PM 53.6 °F - 39.2 °F 58% 29.54 in 10.0 mi SSE 13.8 mph - N/A   Clear
1:15 PM 53.6 °F - 39.2 °F 58% 29.53 in 10.0 mi SSE 13.8 mph - N/A   Clear
1:35 PM 53.6 °F - 37.4 °F 54% 29.51 in 10.0 mi SSE 16.1 mph - N/A   Clear
1:55 PM 57.2 °F - 37.4 °F 48% 29.50 in 10.0 mi SSE 18.4 mph - N/A   Clear
2:15 PM 57.2 °F - 37.4 °F 48% 29.49 in 10.0 mi South 16.1 mph 20.7 mph N/A   Clear
2:35 PM 55.4 °F - 35.6 °F 47% 29.49 in 10.0 mi SSE 13.8 mph - N/A   Clear
2:55 PM 55.4 °F - 35.6 °F 47% 29.49 in 10.0 mi South 13.8 mph - N/A   Clear
3:15 PM 53.6 °F - 35.6 °F 51% 29.48 in 10.0 mi SSE 16.1 mph 20.7 mph N/A   Clear
3:35 PM 53.6 °F - 35.6 °F 51% 29.47 in 10.0 mi SSE 16.1 mph - N/A   Clear
3:55 PM 53.6 °F - 33.8 °F 47% 29.46 in 10.0 mi South 18.4 mph 23.0 mph N/A   Clear
4:15 PM 51.8 °F - 35.6 °F 54% 29.46 in 10.0 mi SSE 15.0 mph 19.6 mph N/A   Clear
4:35 PM 51.8 °F - 35.6 °F 54% 29.44 in 10.0 mi SSE 10.4 mph - N/A   Clear
4:55 PM 51.8 °F - 35.6 °F 54% 29.44 in 10.0 mi SSE 12.7 mph - N/A   Clear
5:15 PM 50.0 °F - 35.6 °F 58% 29.44 in 10.0 mi SSE 12.7 mph - N/A   Clear
5:35 PM 50.0 °F - 35.6 °F 58% 29.44 in 10.0 mi SSE 9.2 mph - N/A   Clear
5:55 PM 50.0 °F - 35.6 °F 58% 29.44 in 10.0 mi South 12.7 mph - N/A   Clear
6:15 PM 50.0 °F - 35.6 °F 58% 29.43 in 10.0 mi South 13.8 mph - N/A   Clear
6:35 PM 50.0 °F - 35.6 °F 58% 29.42 in 10.0 mi SSE 15.0 mph - N/A   Clear
6:55 PM 50.0 °F - 35.6 °F 58% 29.41 in 10.0 mi South 16.1 mph - N/A   Clear
7:15 PM 50.0 °F - 33.8 °F 54% 29.42 in 10.0 mi South 13.8 mph - N/A   Clear
7:35 PM 48.2 °F - 33.8 °F 58% 29.42 in 10.0 mi South 11.5 mph 17.3 mph N/A   Clear
7:55 PM 48.2 °F - 33.8 °F 58% 29.41 in 10.0 mi South 12.7 mph - N/A   Clear
8:15 PM 48.2 °F - 33.8 °F 58% 29.40 in 10.0 mi South 12.7 mph 18.4 mph N/A   Clear
8:35 PM 48.2 °F - 33.8 °F 58% 29.39 in 10.0 mi South 15.0 mph - N/A   Clear
8:55 PM 48.2 °F - 33.8 °F 58% 29.38 in 10.0 mi South 15.0 mph - N/A   Clear
9:15 PM 46.4 °F 40.1 °F 33.8 °F 62% 29.37 in 10.0 mi South 15.0 mph - N/A   Clear
9:35 PM 46.4 °F 40.1 °F 33.8 °F 62% 29.36 in 10.0 mi South 15.0 mph - N/A   Clear
9:55 PM 46.4 °F 40.1 °F 33.8 °F 62% 29.35 in 10.0 mi South 15.0 mph - N/A   Clear
10:15 PM 46.4 °F 40.4 °F 33.8 °F 62% 29.35 in 10.0 mi South 13.8 mph - N/A   Clear
10:35 PM 44.6 °F 38.1 °F 33.8 °F 66% 29.34 in 10.0 mi South 13.8 mph - N/A   Clear
10:55 PM 44.6 °F 38.4 °F 33.8 °F 66% 29.34 in 10.0 mi South 12.7 mph - N/A   Clear
11:15 PM 44.6 °F 37.8 °F 33.8 °F 66% 29.32 in 10.0 mi South 15.0 mph - N/A   Clear
11:35 PM 44.6 °F 37.8 °F 33.8 °F 66% 29.32 in 10.0 mi South 15.0 mph - N/A   Clear
11:55 PM 44.6 °F 38.1 °F 33.8 °F 66% 29.32 in 10.0 mi South 13.8 mph - N/A   Clear